This is the latest recevied weather packets stored in our database for station/object K7AC-13. If no packets are shown the sender has not sent any weather packets the latest 10 day(s).
| Time | Temp. | Humidity | Pressure | Rain* | Wind** | Luminosity | Snow |
|---|---|---|---|---|---|---|---|
| 1777854646 | 33.89° C | 14% | 1007.7 hPa | 0 mm | - | - | - |
| 1777853744 | 34.44° C | 15% | 1007.6 hPa | 0 mm | - | - | - |
| 1777850153 | 36.11° C | 16% | 1007.7 hPa | 0 mm | - | - | - |
| 1777841149 | 34.44° C | 19% | 1010.2 hPa | 0 mm | - | - | - |
| 1777840256 | 33.89° C | 19% | 1010.5 hPa | 0 mm | - | - | - |
| 1777832156 | 32.22° C | 25% | 1012.1 hPa | 0 mm | - | - | - |
| 1777824952 | 28.89° C | 29% | 1012.9 hPa | 0 mm | - | - | - |
| 1777823161 | 27.78° C | 31% | 1012.8 hPa | 0 mm | - | - | - |
| 1777815944 | 23.89° C | 36% | 1012.5 hPa | 0 mm | - | - | - |
| 1777811452 | 23.33° C | 37% | 1011.6 hPa | 0 mm | - | - | - |
| 1777807847 | 23.33° C | 37% | 1011.7 hPa | 0 mm | - | - | - |
| 1777805154 | 23.89° C | 35% | 1012.1 hPa | 0 mm | - | - | - |
| 1777804262 | 23.89° C | 36% | 1011.9 hPa | 0 mm | - | - | - |
| 1777799745 | 24.44° C | 33% | 1011.7 hPa | 0 mm | - | - | - |
| 1777797050 | 23.89° C | 32% | 1012 hPa | 0 mm | - | - | - |
| 1777780854 | 26.67° C | 21% | 1010.8 hPa | 0 mm | - | - | - |
| 1777779952 | 27.22° C | 20% | 1010.6 hPa | 0 mm | - | - | - |
| 1777778152 | 28.33° C | 18% | 1010.3 hPa | 0 mm | - | - | - |
| 1777774557 | 30.56° C | 17% | 1010 hPa | 0 mm | - | - | - |
| 1777769152 | 32.78° C | 15% | 1010.3 hPa | 0 mm | - | - | - |
| 1777766463 | 32.78° C | 14% | 1010.5 hPa | 0 mm | - | - | - |
| 1777764657 | 33.33° C | 14% | 1010.6 hPa | 0 mm | - | - | - |
| 1777763748 | 34.44° C | 13% | 1010.6 hPa | 0 mm | - | - | - |
| 1777761954 | 33.89° C | 14% | 1011 hPa | 0 mm | - | - | - |
| 1777752950 | 33.33° C | 17% | 1013.3 hPa | 0 mm | - | - | - |
* Rain latest hour (hover to see other rain measurements)
** Current wind speed in m/s (hover to see current wind gust speed)